Satellite: NANOSALD
Catalog number: 37361
Epoch time:      11146.82501643
Element set:    0208
Inclination:      071.9526 deg
RA of node:       082.7196 deg
Eccentricity:    0.0020972
Arg of perigee:   209.8190 deg
Mean anomaly:     150.1642 deg
Mean motion:   14.94739815 rev/day
Decay rate:     9.0820e-04 rev/day^2
Epoch rev:           01892
Checksum:              300

Satellite: FO-70
Catalog number: 37380
Epoch time:      11153.36795125
Element set:    0178
Inclination:      071.9740 deg
RA of node:       072.0322 deg
Eccentricity:    0.0018776
Arg of perigee:   302.7299 deg
Mean anomaly:     057.2062 deg
Mean motion:   14.76356596 rev/day
Decay rate:       3.20e-06 rev/day^2
Epoch rev:           02867
Checksum:              310

/EX
SB KEPS @ AMSAT  $ORB11153.W
Orbital Elements  11153.WEATHER

HR AMSAT ORBITAL ELEMENTS FOR WEATHER SATELLITES
FROM WA5QGD FORT WORTH,TX June 2, 2011
Send Subscribe/unsubscribe to KEPS at http://www.amsat.org/mailman/listinfo/kep
BID: ORB11153.W
TO ALL RADIO AMATEURS BT

Satellite: NOAA-10
Catalog number: 16969
Epoch time:      11152.71900643
Element set:    0520
Inclination:      098.6193 deg
RA of node:       182.7156 deg
Eccentricity:    0.0011355
Arg of perigee:   271.2189 deg
Mean anomaly:     088.7661 deg
Mean motion:   14.27462091 rev/day
Decay rate:       -7.7e-07 rev/day^2
Epoch rev:           28544
Checksum:              311

Satellite: NOAA-11
Catalog number: 19531
Epoch time:      11152.78457120
Element set:    0521
Inclination:      098.7522 deg
RA of node:       240.5386 deg
Eccentricity:    0.0010534
Arg of perigee:   230.4074 deg
Mean anomaly:     129.6163 deg
Mean motion:   14.14917603 rev/day
Decay rate:       2.03e-06 rev/day^2
Epoch rev:           17057
Checksum:              266

Satellite: NOAA-12
Catalog number: 21263
Epoch time:      11152.92774627
Element set:    0036
Inclination:      098.7506 deg
RA of node:       170.7981 deg
Eccentricity:    0.0011461
Arg of perigee:   229.5767 deg
Mean anomaly:     130.4412 deg
Mean motion:   14.25713740 rev/day
Decay rate:        8.6e-07 rev/day^2
Epoch rev:           04223
Checksum:              284

Satellite: MET-3/5
Catalog number: 21655
Epoch time:      11152.78825541
Element set:     124
Inclination:      082.5596 deg
RA of node:       061.6556 deg
Eccentricity:    0.0012798
Arg of perigee:   190.6263 deg
Mean anomaly:     169.4625 deg
Mean motion:   13.17029817 rev/day
Decay rate:        5.1e-07 rev/day^2
Epoch rev:           95169
Checksum:              321

Satellite: MET-2/21
Catalog number: 22782
Epoch time:      11152.63687406
Element set:    0111
Inclination:      082.5471 deg
RA of node:       335.2172 deg
Eccentricity:    0.0023314
Arg of perigee:   139.3880 deg
Mean anomaly:     220.9011 deg
Mean motion:   13.83658115 rev/day
Decay rate:        2.9e-07 rev/day^2
Epoch rev:           89640
Checksum:              279

Satellite: OKEAN-4
Catalog number: 23317
Epoch time:      11152.91641562
Element set:    0639
Inclination:      082.5416 deg
RA of node:       027.4008 deg
Eccentricity:    0.0022131
Arg of perigee:   164.5251 deg
Mean anomaly:     195.6645 deg
Mean motion:   14.83073310 rev/day
Decay rate:       4.90e-06 rev/day^2
Epoch rev:           89828
Checksum:              286

Satellite: NOAA-14
Catalog number: 23455
Epoch time:      11152.96170841
Element set:    0520
Inclination:      098.8515 deg
RA of node:       235.7483 deg
Eccentricity:    0.0009096
Arg of perigee:   328.6345 deg
Mean anomaly:     031.4280 deg
Mean motion:   14.13819803 rev/day
Decay rate:       -6.1e-07 rev/day^2
Epoch rev:           84692
Checksum:              304

Satellite: NOAA-15
Catalog number: 25338
Epoch time:      11152.57648368
Element set:    0835
Inclination:      098.6518 deg
RA of node:       138.9331 deg
Eccentricity:    0.0011290
Arg of perigee:   133.8611 deg
Mean anomaly:     226.3502 deg
Mean motion:   14.24918363 rev/day
Decay rate:       1.43e-06 rev/day^2
Epoch rev:           67850
Checksum:              306

Satellite: RESURS
Catalog number: 25394
Epoch time:      11152.93266732
Element set:    0827
Inclination:      098.3008 deg
RA of node:       156.7966 deg
Eccentricity:    0.0000711
Arg of perigee:   325.2312 deg
Mean anomaly:     034.8823 deg
Mean motion:   14.24233783 rev/day
Decay rate:       -3.0e-07 rev/day^2
Epoch rev:           67013
Checksum:              279

Satellite: FENGYUN1
Catalog number: 25730
Epoch time:      11153.96522189
Element set:     339
Inclination:      098.8143 deg
RA of node:       115.4760 deg
Eccentricity:    0.0025395
Arg of perigee:   356.4530 deg
Mean anomaly:     003.6453 deg
Mean motion:   14.08614365 rev/day
Decay rate:       5.53e-06 rev/day^2
Epoch rev:           62106
Checksum:              289

Satellite: OKEAN-0
Catalog number: 25860
Epoch time:      11153.90415609
Element set:     323
Inclination:      097.8832 deg
RA of node:       120.7428 deg
Eccentricity:    0.0001851
Arg of perigee:   055.3717 deg
Mean anomaly:     304.7665 deg
Mean motion:   14.73786551 rev/day
Decay rate:       2.43e-06 rev/day^2
Epoch rev:           63855
Checksum:              302

